Погода в Твери

Погода в Твери : погода сейчас, прогноз погоды и архив. Всё, что Вы хотите узнать о погоде в Твери!

Хотите узнать прогноз погоды в Твери? Тогда Вам сюда: Погода в Твери

Поиск расширенной информации на нашем сайте:

Другие новости

Новости СМИ2

Главная страница сайта

Новости сайта

03.07.2017

Напоминаем, что на нашем специализированном сайте Метеоцентр.Азия вы можете получить высокодетализированные автоматические прогнозы погоды по пунктам России, СНГ и мира в авиационном формате (включающие направление и скорость ветра, видимость, явления погоды, количество и форму облачности, нижнюю и верхнюю границу облачности).


Погода в Твери - сегодня

Время (UTC), дата Ветер
(°,м/с) 
Видим.   Явления Облачность Т
(°С)
Тd
(°С)
f(%) Тe
(°С)
Pmin
(гПа)
dP
(гПа)
Po
(мм)
O2
(г/м3)
Тmin Tmax R s Состояние
почвы
03 19.09.17 180 (Ю) 1{11}  10 км    9/9 540 м 
[Sc]
+11.9 +8.7 81 +13  999.4  -0.2  737  283  +11.8         
06 19.09.17 200 (Ю) 2{11}  10 км  в посл. час ливневой дождь  10/10 400 м 
[St]
+11.1 +9.2 88 +11  1001.4  1.9  738  284  +10.8      влажная 
09 19.09.17 230 (ЮЗ) 10 км    9/9 630 м 
[Sc]
+13 +8.8 76 +13  1004.9  3.5  741  283           
12 19.09.17 240 (ЮЗ) 2{10}  10 км  в посл. час ливневой дождь  9/9 930 м 
[Sc]
+11.5 +8.1 80 +12  1009.8  4.8  744  286           
15 19.09.17 210 (ЮЗ) 2{10}  10 км    9/9 1200 м 
[Sc]
+12.2 +6.5 68 +13  1013.1  3.2  747  287         
18 19.09.17 220 (ЮЗ) 2{10}  10 км    8/8 1500 м 
[Sc]
+11.4 +7.6 77 +12  1015.6  2.4  749  288    +13.2  0.0     
21 19.09.17 тихо ()   10 км    8/8 1000 м 
[Sc]
+10.9 +7.5 80 +11  1017.3  1.6  750  289           
00 20.09.17 тихо ()   10 км    ясно 
+9 +7.4 90 +9  1019.2  1.8  751  292           
03 20.09.17 190 (Ю) 10 км    4/0 средняя 
[Ac trans]
+7.8 +6.8 93 +9  1020.4  1.1  752  293  +7.8         
06 20.09.17 250 (З) 10 км    5/1 600 м средняя, верхняя 
[Sc|Ac trans|Ci fib]
+10.4 +7.8 84 +12  1022.1  1.8  753  291  +7.5        влажная 
09 20.09.17 220 (ЮЗ) 10 км    8/4 600 м верхняя 
[Cu hum|Ci fib]
+16 +7.9 59 +17  1022.9  1.1  754  286           
12 20.09.17 200 (Ю) 10 км    9/5 600 м средняя 
[Cu Sc|Ac trans]
+16.8 +7.5 54 +18  1023.5  0.7  755  285           
15 20.09.17 тихо ()   10 км    8/3 1000 м средняя 
[Sc|Ac trans]
+14.7 +10.1 74 +16  1024  0.4  755  287           
18 20.09.17 тихо ()   10 км    5/0 средняя 
[Ac trans]
+10.1 +8.4 89 +10  1025.1  0.7  755  292    +17.6       
21 20.09.17 тихо ()   10 км    ясно 
+6.7 +5.6 93 +7  1026.6  1.2  756  297           
00 21.09.17 тихо ()   10 км    ясно 
+6.9 +5.8 93 +7  1027.4  0.8  757  297           
03 21.09.17 тихо ()   10 км    4/0 средняя 
[Ac trans]
+6.7 +6 95 +7  1028.3  0.8  758  297  +6.1         
06 21.09.17 080 (В) 10 км    9/0 средняя, верхняя 
[Ac trans|Ci fib]
+9.4 +8 91 +9  1028.3  0.2  758  294  +5.4        влажная 
09 21.09.17 090 (В) 10 км    4/3 600 м средняя 
[Cu hum|Ac trans]
+15.8 +8.6 62 +16  1028.8  0.9  758  287           
12 21.09.17 080 (В) 10 км    8/5 600 м средняя, верхняя 
[Sc|Ac trans|Ci fib]
+16.1 +8.1 59 +16  1028.3  -0.4  758  287           
15 21.09.17 080 (В) 10 км    8/0 средняя, верхняя 
[Ac trans|Ci fib]
+14.2 +7.9 66 +15  1028.5  0.1  758  289           
18 21.09.17 080 (В) 10 км    8/0 средняя 
[Ac trans]
+12.2 +8.8 80 +12  1029.8  1.2  759  291    +17.2       
21 21.09.17 070 (В) 10 км    3/0 средняя 
[Ac trans]
+9.9 +8.4 90 +10  1031.3  1.3  760  294           
00 22.09.17 080 (В) 10 км    ясно 
+8.6 +7 90 +9  1032.4  761  296           
03 22.09.17 080 (В) 10 км    10/10 240 м 
[St]
+6.9 +5.7 92 +6  1033.3  0.7  761  298  +6.8         
Время (UTC), дата Ветер
(°,м/с) 
Видим.   Явления Облачность Т
(°С)
Тd
(°С)
f(%) Тe
(°С)
Pmin
(гПа)
dP
(гПа)
Po
(мм)
O2
(г/м3)
Тmin Tmax R s Состояние
почвы

Для получения пояснительной информации подведите курсор к названию столбца.

ПОГОДА в Твери - архив

Всё, что Вы хотите узнать о погоде в Твери - удобно и подробно!

Выберите нужную дату (начиная с 1 января 2015* года) и нажмите кнопку "Найти".
Будут отображены архивные сводки погоды по пункту Тверь, начиная с указанной даты.


Отображать данные в формате CSV (для использования в таблицах Excel)


Внимание! Наш архив погоды предназначен исключительно для личного некоммерческого использования в познавательных целях. Если Вам необходимы официальные справки о состоянии погоды (для производственных, юридических, коммерческих и т.п. целей), обращайтесь в органы Росгидромета.

*Примечание: данная дата относится к архиву по метеостанциям СССР (Россия, СНГ, Балтия).
Архив по метеостанциям Зарубежной Европы и Азии (кроме Китая) хранится 10 дней, по другим регионам земного шара (Китай, Африка, Америка, Австралия, Океания) - 1 день.

Тверь - район местоположения метеостанции


Название, широта, долгота, высота метеостанции:
Тверь (город) 56.8°ш. 35.7°д. 137 м над ур. моря [Российская Федерация]

Дополнительная информация

В oтличие oт бoльшинства пoгoдных сайтoв мы публикуем пoдрoбную метеoинфoрмацию в детальнoм прoфессиoнальнoм фoрмате.

Характеристики температуры и влажнoсти вoздуха измеряются на высoте 2 м в тени вдали oт зданий и деревьев.
Скoрoсть ветра измеряется на высoте 10 м (на урoвне рoста челoвека скoрoсть ветра ниже в 1.5-2 раза). Если метеoстанция нахoдится в гoрoде или в лесу, тo скoрoсть ветра занижена на 2-4 м/с пo сравнению с oткрытым местoм. Скoрoсть ветра над акватoриями крупных рек и oзёр, а также на вершинах хoлмoв на 2-5 м/с выше, чем в oбычных услoвиях.
Атмoсфернoе давление в разных тoчках местнoсти мoжет значительнo oтличаться oт давления на метеoстанции, в зависимoсти oт услoвий рельефа (при пoдъёме на 10 м давление пoнижается примернo на 1 мм рт.ст.).